Zurück zum Katalog

STARLINK-5577

AktivKommunikationVLEO
NORAD 55751·PAYLOAD·🇺🇸 United States

Gestartet Mar 3, 2023 von Vandenberg Space Force Base

Loading…

Nächste Überflüge (nächste 24 Stunden)

TLE

AktuellSource: CelesTrak SupGP

Epoche: Sep 14, 2026, 21:17 UTC

1 55751C 23028L   26257.88729167 -.00015702  00000+0 -13160-2 0  2574
2 55751  70.0000 127.5151 0002752 271.0669 241.6558 14.98337253    18

Verfolge STARLINK-5577 in Echtzeit mit AllMySat

Download on the App Store